Time,TemperatureF,DewpointF,PressureIn,WindDirection,WindDirectionDegrees,WindSpeedMPH,WindSpeedGustMPH,Humidity,HourlyPrecipIn,Conditions,Clouds,dailyrainin,SoftwareType,DateUTC
2013-08-19 00:02:00,68.9,39.8,30.03,SE,128,3.1,3.1,34,0.00,,---,0.00,VWS V14.01,2013-08-19 07:02:00,
2013-08-19 00:07:00,68.9,39.8,30.03,East,84,4.0,4.5,34,0.00,,---,0.00,VWS V14.01,2013-08-19 07:07:00,
2013-08-19 00:13:00,68.7,39.6,30.03,NE,50,0.0,0.0,34,0.00,,---,0.00,VWS V14.01,2013-08-19 07:13:00,
2013-08-19 00:18:00,68.2,39.1,30.03,North,2,0.0,0.0,34,0.00,,---,0.00,VWS V14.01,2013-08-19 07:18:00,
2013-08-19 00:23:00,67.6,38.7,30.03,North,357,2.7,3.6,34,0.00,,---,0.00,VWS V14.01,2013-08-19 07:23:00,
2013-08-19 00:29:00,67.6,38.7,30.03,North,357,0.0,0.0,34,0.00,,---,0.00,VWS V14.01,2013-08-19 07:29:00,
2013-08-19 00:34:00,67.6,38.7,30.03,North,357,0.0,0.0,34,0.00,,---,0.00,VWS V14.01,2013-08-19 07:34:00,
2013-08-19 00:40:00,67.6,38.7,30.03,North,357,0.0,0.0,34,0.00,,---,0.00,VWS V14.01,2013-08-19 07:40:00,
2013-08-19 00:45:00,67.6,38.7,30.03,SE,140,0.0,0.0,34,0.00,,---,0.00,VWS V14.01,2013-08-19 07:45:00,
2013-08-19 00:51:00,67.5,38.5,30.00,SE,140,0.0,0.0,34,0.00,,---,0.00,VWS V14.01,2013-08-19 07:51:00,
2013-08-19 00:56:00,67.5,38.5,30.00,SE,140,0.0,0.0,34,0.00,,---,0.00,VWS V14.01,2013-08-19 07:56:00,
2013-08-19 01:02:00,66.9,38.0,30.00,NNE,27,0.0,0.0,34,0.00,,---,0.00,VWS V14.01,2013-08-19 08:02:00,
2013-08-19 01:08:00,66.6,38.8,30.00,South,181,0.0,0.0,36,0.00,,---,0.00,VWS V14.01,2013-08-19 08:08:00,
2013-08-19 01:13:00,66.4,38.6,30.00,South,181,0.0,0.0,36,0.00,,---,0.00,VWS V14.01,2013-08-19 08:13:00,
2013-08-19 01:19:00,66.2,38.5,30.00,NE,55,5.4,5.4,36,0.00,,---,0.00,VWS V14.01,2013-08-19 08:19:00,
2013-08-19 01:24:00,66.0,38.3,30.00,NE,50,0.0,0.0,36,0.00,,---,0.00,VWS V14.01,2013-08-19 08:24:00,
2013-08-19 01:30:00,65.5,37.8,30.00,NW,310,2.7,2.7,36,0.00,,---,0.00,VWS V14.01,2013-08-19 08:30:00,
2013-08-19 01:36:00,65.5,37.8,30.00,WSW,251,0.0,0.0,36,0.00,,---,0.00,VWS V14.01,2013-08-19 08:36:00,
2013-08-19 01:42:00,65.3,38.7,30.00,WSW,251,0.0,0.0,38,0.00,,---,0.00,VWS V14.01,2013-08-19 08:42:00,
2013-08-19 01:47:00,65.3,38.7,30.00,WSW,251,0.0,0.0,38,0.00,,---,0.00,VWS V14.01,2013-08-19 08:47:00,
2013-08-19 01:53:00,65.3,38.7,30.00,WSW,251,0.0,0.0,38,0.00,,---,0.00,VWS V14.01,2013-08-19 08:53:00,
2013-08-19 01:58:00,65.1,38.6,30.00,WSW,251,0.0,0.0,38,0.00,,---,0.00,VWS V14.01,2013-08-19 08:58:00,
2013-08-19 02:03:00,65.1,38.6,30.00,WSW,251,0.0,0.0,38,0.00,,---,0.00,VWS V14.01,2013-08-19 09:03:00,
2013-08-19 02:09:00,64.6,38.1,30.00,WSW,251,0.0,0.0,38,0.00,,---,0.00,VWS V14.01,2013-08-19 09:09:00,
2013-08-19 02:15:00,64.2,37.8,30.00,WSW,251,0.0,0.0,38,0.00,,---,0.00,VWS V14.01,2013-08-19 09:15:00,
2013-08-19 02:20:00,64.0,37.6,30.00,WSW,251,0.0,0.0,38,0.00,,---,0.00,VWS V14.01,2013-08-19 09:20:00,
2013-08-19 02:26:00,64.2,37.8,30.00,ESE,108,0.0,0.0,38,0.00,,---,0.00,VWS V14.01,2013-08-19 09:26:00,
2013-08-19 02:31:00,64.2,38.8,30.00,SE,126,2.7,2.7,39,0.00,,---,0.00,VWS V14.01,2013-08-19 09:31:00,
2013-08-19 02:36:00,64.4,37.9,30.00,ENE,65,3.6,4.0,38,0.00,,---,0.00,VWS V14.01,2013-08-19 09:36:00,
2013-08-19 02:41:00,64.6,38.1,30.00,East,84,0.0,0.0,38,0.00,,---,0.00,VWS V14.01,2013-08-19 09:41:00,
2013-08-19 02:46:00,64.2,38.8,30.00,East,85,0.0,0.0,39,0.00,,---,0.00,VWS V14.01,2013-08-19 09:46:00,
2013-08-19 02:51:00,64.0,38.6,30.00,NNE,33,0.0,2.7,39,0.00,,---,0.00,VWS V14.01,2013-08-19 09:51:00,
2013-08-19 02:57:00,63.9,38.5,30.00,North,6,2.7,2.7,39,0.00,,---,0.00,VWS V14.01,2013-08-19 09:57:00,
2013-08-19 03:02:00,63.5,38.1,30.00,North,3,0.0,0.0,39,0.00,,---,0.00,VWS V14.01,2013-08-19 10:02:00,
2013-08-19 03:08:00,63.5,38.1,30.00,North,3,0.0,0.0,39,0.00,,---,0.00,VWS V14.01,2013-08-19 10:08:00,
2013-08-19 03:13:00,63.7,38.3,30.00,North,11,4.9,4.9,39,0.00,,---,0.00,VWS V14.01,2013-08-19 10:13:00,
2013-08-19 03:19:00,64.2,38.8,30.00,NE,38,5.8,5.8,39,0.00,,---,0.00,VWS V14.01,2013-08-19 10:19:00,
2013-08-19 03:24:00,66.4,40.7,30.00,NE,48,8.1,8.7,39,0.00,,---,0.00,VWS V14.01,2013-08-19 10:24:00,
2013-08-19 03:30:00,68.4,42.5,30.00,East,82,6.3,8.3,39,0.00,,---,0.00,VWS V14.01,2013-08-19 10:30:00,
2013-08-19 03:35:00,69.8,42.7,30.00,NE,47,9.6,12.3,38,0.00,,---,0.00,VWS V14.01,2013-08-19 10:35:00,
2013-08-19 03:41:00,70.5,42.3,30.00,NNE,32,8.7,10.1,36,0.00,,---,0.00,VWS V14.01,2013-08-19 10:41:00,
2013-08-19 03:46:00,71.2,42.9,30.00,ENE,60,8.3,10.1,36,0.00,,---,0.00,VWS V14.01,2013-08-19 10:46:00,
2013-08-19 03:52:00,72.3,42.8,30.00,ENE,69,8.1,9.2,34,0.00,,---,0.00,VWS V14.01,2013-08-19 10:52:00,
2013-08-19 03:58:00,73.4,43.7,30.00,NE,45,6.3,11.0,34,0.00,,---,0.00,VWS V14.01,2013-08-19 10:58:00,
2013-08-19 04:04:00,73.8,42.9,30.00,East,81,5.8,8.7,33,0.00,,---,0.00,VWS V14.01,2013-08-19 11:04:00,
2013-08-19 04:10:00,74.5,43.5,29.97,East,82,5.8,8.3,33,0.00,,---,0.00,VWS V14.01,2013-08-19 11:10:00,
2013-08-19 04:15:00,75.4,43.1,29.97,ENE,60,8.7,10.1,32,0.00,,---,0.00,VWS V14.01,2013-08-19 11:15:00,
2013-08-19 04:21:00,75.9,43.6,29.97,ENE,67,8.7,13.2,32,0.00,,---,0.00,VWS V14.01,2013-08-19 11:21:00,
2013-08-19 04:27:00,76.6,44.2,29.97,East,90,14.5,17.4,32,0.00,,---,0.00,VWS V14.01,2013-08-19 11:27:00,
2013-08-19 04:32:00,76.6,44.2,29.97,NE,55,11.0,17.0,32,0.00,,---,0.00,VWS V14.01,2013-08-19 11:32:00,
2013-08-19 04:38:00,77.2,43.4,29.97,ENE,65,14.1,15.4,30,0.00,,---,0.00,VWS V14.01,2013-08-19 11:38:00,
2013-08-19 04:43:00,77.4,43.5,29.97,NE,53,16.3,18.8,30,0.00,,---,0.00,VWS V14.01,2013-08-19 11:43:00,
2013-08-19 04:48:00,78.1,44.2,29.97,ENE,73,13.2,16.3,30,0.00,,---,0.00,VWS V14.01,2013-08-19 11:48:00,
2013-08-19 04:53:00,78.1,44.2,29.97,ENE,64,11.0,15.0,30,0.00,,---,0.00,VWS V14.01,2013-08-19 11:53:00,
2013-08-19 04:59:00,78.1,44.2,29.97,East,83,11.9,13.2,30,0.00,,---,0.00,VWS V14.01,2013-08-19 11:59:00,
2013-08-19 05:04:00,78.3,41.6,29.97,ENE,59,17.0,17.0,27,0.00,,---,0.00,VWS V14.01,2013-08-19 12:04:00,
2013-08-19 05:09:00,78.3,41.6,30.00,NE,44,11.0,17.0,27,0.00,,---,0.00,VWS V14.01,2013-08-19 12:09:00,
2013-08-19 05:15:00,78.3,41.6,30.00,ENE,65,15.0,15.0,27,0.00,,---,0.00,VWS V14.01,2013-08-19 12:15:00,
2013-08-19 05:21:00,77.9,41.3,30.00,ENE,57,15.0,18.3,27,0.00,,---,0.00,VWS V14.01,2013-08-19 12:21:00,
2013-08-19 05:26:00,77.7,41.1,30.00,ENE,76,11.0,12.8,27,0.00,,---,0.00,VWS V14.01,2013-08-19 12:26:00,
2013-08-19 05:32:00,77.5,41.0,30.00,NE,54,13.2,13.2,27,0.00,,---,0.00,VWS V14.01,2013-08-19 12:32:00,
2013-08-19 05:37:00,77.5,41.0,30.00,East,87,13.2,13.2,27,0.00,,---,0.00,VWS V14.01,2013-08-19 12:37:00,
2013-08-19 05:43:00,77.2,40.7,30.00,NE,49,14.5,15.0,27,0.00,,---,0.00,VWS V14.01,2013-08-19 12:43:00,
2013-08-19 05:49:00,76.8,43.1,30.00,ENE,77,7.6,12.8,30,0.00,,---,0.00,VWS V14.01,2013-08-19 12:49:00,
2013-08-19 05:55:00,76.5,42.8,30.00,ENE,58,8.7,13.2,30,0.00,,---,0.00,VWS V14.01,2013-08-19 12:55:00,
2013-08-19 06:00:00,76.3,42.6,30.00,NNE,29,8.7,11.0,30,0.00,,---,0.00,VWS V14.01,2013-08-19 13:00:00,
2013-08-19 06:05:00,76.3,42.6,30.00,ENE,62,8.3,8.7,30,0.00,,---,0.00,VWS V14.01,2013-08-19 13:05:00,
2013-08-19 06:11:00,75.9,42.3,30.00,NNE,32,7.6,8.3,30,0.00,,---,0.00,VWS V14.01,2013-08-19 13:11:00,
2013-08-19 06:17:00,75.4,41.8,30.00,East,88,10.1,11.0,30,0.00,,---,0.00,VWS V14.01,2013-08-19 13:17:00,
2013-08-19 06:23:00,75.2,42.9,30.00,ENE,69,6.3,6.7,32,0.00,,---,0.00,VWS V14.01,2013-08-19 13:23:00,
2013-08-19 06:29:00,74.8,42.6,30.00,East,90,10.5,10.5,32,0.00,,---,0.00,VWS V14.01,2013-08-19 13:29:00,
2013-08-19 06:34:00,74.8,42.6,30.00,East,88,4.0,7.6,32,0.00,,---,0.00,VWS V14.01,2013-08-19 13:34:00,
2013-08-19 06:40:00,74.5,42.3,30.00,NE,51,8.3,10.5,32,0.00,,---,0.00,VWS V14.01,2013-08-19 13:40:00,
2013-08-19 06:45:00,74.5,43.5,30.00,NE,44,9.6,9.6,33,0.00,,---,0.00,VWS V14.01,2013-08-19 13:45:00,
2013-08-19 06:50:00,74.7,43.7,30.00,NE,54,10.5,10.5,33,0.00,,---,0.00,VWS V14.01,2013-08-19 13:50:00,
2013-08-19 06:56:00,75.0,44.0,30.00,NE,39,7.6,10.1,33,0.00,,---,0.00,VWS V14.01,2013-08-19 13:56:00,
2013-08-19 07:02:00,75.7,44.6,30.00,NE,42,6.3,10.1,33,0.00,,---,0.00,VWS V14.01,2013-08-19 14:02:00,
2013-08-19 07:07:00,76.1,44.9,30.03,ENE,57,8.1,8.1,33,0.00,,---,0.00,VWS V14.01,2013-08-19 14:07:00,
2013-08-19 07:13:00,76.6,45.4,30.03,ENE,60,6.3,8.7,33,0.00,,---,0.00,VWS V14.01,2013-08-19 14:13:00,
2013-08-19 07:18:00,77.2,44.7,30.03,ENE,76,5.8,10.1,32,0.00,,---,0.00,VWS V14.01,2013-08-19 14:18:00,
2013-08-19 07:24:00,78.1,45.4,30.03,NE,45,8.1,8.1,32,0.00,,---,0.00,VWS V14.01,2013-08-19 14:24:00,
2013-08-19 07:29:00,79.0,44.9,30.03,ENE,66,12.3,12.3,30,0.00,,---,0.00,VWS V14.01,2013-08-19 14:29:00,
2013-08-19 07:34:00,79.5,45.4,30.03,ENE,74,5.8,10.5,30,0.00,,---,0.00,VWS V14.01,2013-08-19 14:34:00,
2013-08-19 07:40:00,80.4,46.2,30.03,NE,49,8.1,14.5,30,0.00,,---,0.00,VWS V14.01,2013-08-19 14:40:00,
2013-08-19 07:45:00,81.1,45.4,30.03,ENE,62,8.3,8.7,28,0.00,,---,0.00,VWS V14.01,2013-08-19 14:45:00,
2013-08-19 07:51:00,81.5,45.8,30.03,ENE,69,10.1,11.0,28,0.00,,---,0.00,VWS V14.01,2013-08-19 14:51:00,
2013-08-19 07:56:00,82.4,46.5,30.03,ENE,63,8.1,10.1,28,0.00,,---,0.00,VWS V14.01,2013-08-19 14:56:00,
2013-08-19 08:02:00,83.1,42.6,30.03,ENE,77,11.0,15.4,24,0.00,,---,0.00,VWS V14.01,2013-08-19 15:02:00,
2013-08-19 08:07:00,83.3,42.8,30.03,East,96,12.3,15.9,24,0.00,,---,0.00,VWS V14.01,2013-08-19 15:07:00,
2013-08-19 08:13:00,83.1,42.6,30.03,ENE,64,10.5,12.8,24,0.00,,---,0.00,VWS V14.01,2013-08-19 15:13:00,
2013-08-19 08:18:00,82.9,42.5,30.03,ENE,58,11.0,16.8,24,0.00,,---,0.00,VWS V14.01,2013-08-19 15:18:00,
2013-08-19 08:24:00,83.3,42.8,30.03,ESE,111,4.0,12.3,24,0.00,,---,0.00,VWS V14.01,2013-08-19 15:24:00,
2013-08-19 08:30:00,83.3,42.8,30.03,ENE,61,8.3,10.1,24,0.00,,---,0.00,VWS V14.01,2013-08-19 15:30:00,
2013-08-19 08:35:00,83.3,39.3,30.03,ENE,70,9.6,12.8,21,0.00,,---,0.00,VWS V14.01,2013-08-19 15:35:00,
2013-08-19 08:40:00,83.5,39.5,30.03,ENE,75,8.7,9.2,21,0.00,,---,0.00,VWS V14.01,2013-08-19 15:40:00,
2013-08-19 08:46:00,83.7,39.6,30.03,NE,54,7.2,8.1,21,0.00,,---,0.00,VWS V14.01,2013-08-19 15:46:00,
2013-08-19 08:51:00,84.0,39.9,30.03,ESE,102,8.3,8.7,21,0.00,,---,0.00,VWS V14.01,2013-08-19 15:51:00,
2013-08-19 08:57:00,84.6,38.5,30.03,ENE,72,10.5,10.5,20,0.00,,---,0.00,VWS V14.01,2013-08-19 15:57:00,
2013-08-19 09:02:00,85.6,39.4,30.03,NE,53,8.1,11.9,20,0.00,,---,0.00,VWS V14.01,2013-08-19 16:02:00,
2013-08-19 09:08:00,86.4,40.0,30.03,ESE,116,8.3,16.3,20,0.00,,---,0.00,VWS V14.01,2013-08-19 16:08:00,
2013-08-19 09:14:00,86.9,40.4,30.03,ENE,63,5.4,7.6,20,0.00,,---,0.00,VWS V14.01,2013-08-19 16:14:00,
2013-08-19 09:20:00,87.6,41.0,30.03,East,92,11.0,12.8,20,0.00,,---,0.00,VWS V14.01,2013-08-19 16:20:00,
2013-08-19 09:25:00,87.6,41.0,30.03,ESE,106,11.0,15.4,20,0.00,,---,0.00,VWS V14.01,2013-08-19 16:25:00,
2013-08-19 09:31:00,87.8,41.1,30.03,ESE,114,8.7,12.8,20,0.00,,---,0.00,VWS V14.01,2013-08-19 16:31:00,
2013-08-19 09:36:00,88.3,41.6,30.03,ESE,113,10.1,15.9,20,0.00,,---,0.00,VWS V14.01,2013-08-19 16:36:00,
2013-08-19 09:41:00,89.2,42.3,30.03,ESE,102,12.8,15.9,20,0.00,,---,0.00,VWS V14.01,2013-08-19 16:41:00,
2013-08-19 09:47:00,89.8,40.7,30.03,SE,134,16.8,16.8,18,0.00,,---,0.00,VWS V14.01,2013-08-19 16:47:00,
2013-08-19 09:53:00,90.0,40.8,30.03,SE,133,12.8,14.1,18,0.00,,---,0.00,VWS V14.01,2013-08-19 16:53:00,
2013-08-19 09:58:00,91.2,41.8,30.03,SE,137,8.7,14.5,18,0.00,,---,0.00,VWS V14.01,2013-08-19 16:58:00,
2013-08-19 10:04:00,92.7,43.0,30.03,East,81,11.4,13.2,18,0.00,,---,0.00,VWS V14.01,2013-08-19 17:04:00,
2013-08-19 10:10:00,93.0,43.3,30.03,SE,130,12.3,12.3,18,0.00,,---,0.00,VWS V14.01,2013-08-19 17:10:00,
2013-08-19 10:15:00,93.6,41.5,30.03,ESE,115,13.2,17.0,16,0.00,,---,0.00,VWS V14.01,2013-08-19 17:15:00,
2013-08-19 10:21:00,92.7,43.0,30.03,East,96,13.2,16.3,18,0.00,,---,0.00,VWS V14.01,2013-08-19 17:21:00,
2013-08-19 10:27:00,93.0,43.3,30.03,East,96,11.0,11.9,18,0.00,,---,0.00,VWS V14.01,2013-08-19 17:27:00,
2013-08-19 10:32:00,93.4,41.3,30.03,ESE,119,11.0,11.0,16,0.00,,---,0.00,VWS V14.01,2013-08-19 17:32:00,
2013-08-19 10:37:00,92.8,43.2,30.03,ESE,119,11.0,11.0,18,0.00,,---,0.00,VWS V14.01,2013-08-19 17:37:00,
2013-08-19 10:43:00,92.7,43.0,30.03,ESE,119,11.0,11.0,18,0.00,,---,0.00,VWS V14.01,2013-08-19 17:43:00,
2013-08-19 10:48:00,93.6,41.5,30.03,ESE,119,11.0,11.0,16,0.00,,---,0.00,VWS V14.01,2013-08-19 17:48:00,
2013-08-19 10:53:00,94.8,42.5,30.03,ESE,105,12.3,12.3,16,0.00,,---,0.00,VWS V14.01,2013-08-19 17:53:00,
2013-08-19 10:58:00,96.1,43.5,30.03,ESE,105,12.3,12.3,16,0.00,,---,0.00,VWS V14.01,2013-08-19 17:58:00,
2013-08-19 11:04:00,95.7,43.2,30.03,SE,132,19.2,19.2,16,0.00,,---,0.00,VWS V14.01,2013-08-19 18:04:00,
2013-08-19 11:09:00,95.2,42.8,30.03,ESE,118,20.6,20.6,16,0.00,,---,0.00,VWS V14.01,2013-08-19 18:09:00,
2013-08-19 11:14:00,95.4,42.9,30.03,SE,131,12.8,12.8,16,0.00,,---,0.00,VWS V14.01,2013-08-19 18:14:00,
2013-08-19 11:19:00,95.4,42.9,30.03,ESE,106,15.4,15.4,16,0.00,,---,0.00,VWS V14.01,2013-08-19 18:19:00,
2013-08-19 11:25:00,95.5,43.0,30.03,ESE,110,12.8,12.8,16,0.00,,---,0.00,VWS V14.01,2013-08-19 18:25:00,
2013-08-19 11:31:00,95.9,43.3,30.03,ENE,77,15.4,15.4,16,0.00,,---,0.00,VWS V14.01,2013-08-19 18:31:00,
2013-08-19 11:36:00,95.4,42.9,30.03,East,90,14.5,14.5,16,0.00,,---,0.00,VWS V14.01,2013-08-19 18:36:00,
2013-08-19 11:41:00,94.6,42.3,30.03,East,90,13.2,13.2,16,0.00,,---,0.00,VWS V14.01,2013-08-19 18:41:00,
2013-08-19 11:47:00,94.8,42.5,30.03,East,90,13.2,13.2,16,0.00,,---,0.00,VWS V14.01,2013-08-19 18:47:00,
2013-08-19 11:53:00,94.3,42.0,30.03,ESE,102,15.4,15.4,16,0.00,,---,0.00,VWS V14.01,2013-08-19 18:53:00,
2013-08-19 11:58:00,95.7,43.2,30.03,ESE,102,15.4,15.4,16,0.00,,---,0.00,VWS V14.01,2013-08-19 18:58:00,
2013-08-19 12:03:00,95.0,42.6,30.03,ESE,102,15.4,15.4,16,0.00,,---,0.00,VWS V14.01,2013-08-19 19:03:00,
2013-08-19 12:08:00,96.1,43.5,30.03,ESE,102,15.4,15.4,16,0.00,,---,0.00,VWS V14.01,2013-08-19 19:08:00,
2013-08-19 12:14:00,94.8,42.5,30.03,ESE,119,11.9,11.9,16,0.00,,---,0.00,VWS V14.01,2013-08-19 19:14:00,
2013-08-19 12:19:00,93.2,41.2,30.03,ESE,119,11.9,11.9,16,0.00,,---,0.00,VWS V14.01,2013-08-19 19:19:00,
2013-08-19 12:24:00,93.2,41.2,30.03,East,85,13.2,13.2,16,0.00,,---,0.00,VWS V14.01,2013-08-19 19:24:00,
2013-08-19 12:29:00,93.4,41.3,30.03,East,87,15.0,15.0,16,0.00,,---,0.00,VWS V14.01,2013-08-19 19:29:00,
2013-08-19 12:34:00,92.5,42.9,30.03,East,87,15.0,15.0,18,0.00,,---,0.00,VWS V14.01,2013-08-19 19:34:00,
2013-08-19 12:40:00,92.1,42.6,30.03,ENE,70,7.6,7.6,18,0.00,,---,0.00,VWS V14.01,2013-08-19 19:40:00,
2013-08-19 12:45:00,92.3,42.7,30.03,East,95,12.8,12.8,18,0.00,,---,0.00,VWS V14.01,2013-08-19 19:45:00,
2013-08-19 12:50:00,91.9,42.4,30.03,East,100,17.4,17.4,18,0.00,,---,0.00,VWS V14.01,2013-08-19 19:50:00,
2013-08-19 12:55:00,91.6,42.1,30.03,East,101,7.6,7.6,18,0.00,,---,0.00,VWS V14.01,2013-08-19 19:55:00,
2013-08-19 13:02:00,92.3,42.7,30.03,East,84,15.4,15.4,18,0.00,,---,0.00,VWS V14.01,2013-08-19 20:02:00,
2013-08-19 13:08:00,94.1,41.9,30.03,ESE,122,11.0,11.0,16,0.00,,---,0.00,VWS V14.01,2013-08-19 20:08:00,
2013-08-19 13:13:00,96.4,43.8,30.03,ESE,108,11.0,11.0,16,0.00,,---,0.00,VWS V14.01,2013-08-19 20:13:00,
2013-08-19 13:18:00,96.3,43.6,30.03,ESE,114,14.1,14.1,16,0.00,,---,0.00,VWS V14.01,2013-08-19 20:18:00,
2013-08-19 13:23:00,94.3,42.0,30.03,ESE,114,14.1,14.1,16,0.00,,---,0.00,VWS V14.01,2013-08-19 20:23:00,
2013-08-19 13:28:00,94.5,42.2,30.03,ESE,114,14.1,14.1,16,0.00,,---,0.00,VWS V14.01,2013-08-19 20:28:00,
2013-08-19 13:33:00,97.0,44.2,30.03,ESE,114,14.1,14.1,16,0.00,,---,0.00,VWS V14.01,2013-08-19 20:33:00,
2013-08-19 13:38:00,97.9,44.9,30.03,ESE,114,14.1,14.1,16,0.00,,---,0.00,VWS V14.01,2013-08-19 20:38:00,
2013-08-19 13:44:00,98.4,45.4,30.03,SE,130,8.7,14.1,16,0.00,,---,0.00,VWS V14.01,2013-08-19 20:44:00,
2013-08-19 13:49:00,98.6,43.0,30.03,ENE,72,11.0,11.0,15,0.00,,---,0.00,VWS V14.01,2013-08-19 20:49:00,
2013-08-19 13:54:00,98.1,45.1,30.03,ENE,76,10.5,10.5,16,0.00,,---,0.00,VWS V14.01,2013-08-19 20:54:00,
2013-08-19 14:00:00,97.3,44.5,30.03,SSW,213,12.8,12.8,16,0.00,,---,0.00,VWS V14.01,2013-08-19 21:00:00,
2013-08-19 14:05:00,97.3,44.5,30.03,SSW,213,12.8,12.8,16,0.00,,---,0.00,VWS V14.01,2013-08-19 21:05:00,
2013-08-19 14:10:00,96.4,43.8,30.03,WSW,253,4.9,12.8,16,0.00,,---,0.00,VWS V14.01,2013-08-19 21:10:00,
2013-08-19 14:15:00,95.7,43.2,30.03,WSW,253,4.9,4.9,16,0.00,,---,0.00,VWS V14.01,2013-08-19 21:15:00,
2013-08-19 14:20:00,95.4,42.9,30.03,WSW,237,10.1,10.1,16,0.00,,---,0.00,VWS V14.01,2013-08-19 21:20:00,
2013-08-19 14:25:00,95.0,42.6,30.03,WSW,243,8.3,8.3,16,0.00,,---,0.00,VWS V14.01,2013-08-19 21:25:00,
2013-08-19 14:31:00,94.1,41.9,30.03,West,259,10.1,10.1,16,0.00,,---,0.00,VWS V14.01,2013-08-19 21:31:00,
2013-08-19 14:36:00,93.4,41.3,30.00,WNW,283,8.7,8.7,16,0.00,,---,0.00,VWS V14.01,2013-08-19 21:36:00,
2013-08-19 14:41:00,93.4,41.3,30.00,WSW,254,8.7,8.7,16,0.00,,---,0.00,VWS V14.01,2013-08-19 21:41:00,
2013-08-19 14:46:00,92.7,43.0,30.00,West,264,8.7,8.7,18,0.00,,---,0.00,VWS V14.01,2013-08-19 21:46:00,
2013-08-19 14:51:00,93.2,41.2,30.00,West,264,8.7,8.7,16,0.00,,---,0.00,VWS V14.01,2013-08-19 21:51:00,
2013-08-19 14:57:00,93.0,43.3,30.00,West,264,8.7,8.7,18,0.00,,---,0.00,VWS V14.01,2013-08-19 21:57:00,
2013-08-19 15:02:00,92.8,43.2,30.00,West,261,8.3,13.2,18,0.00,,---,0.00,VWS V14.01,2013-08-19 22:02:00,
2013-08-19 15:07:00,90.7,41.4,30.00,NW,305,8.1,8.1,18,0.00,,---,0.00,VWS V14.01,2013-08-19 22:07:00,
2013-08-19 15:12:00,90.9,41.5,30.00,NW,312,7.2,7.2,18,0.00,,---,0.00,VWS V14.01,2013-08-19 22:12:00,
2013-08-19 15:18:00,92.3,42.7,30.00,WNW,296,5.4,5.4,18,0.00,,---,0.00,VWS V14.01,2013-08-19 22:18:00,
2013-08-19 15:24:00,91.8,42.3,30.00,WNW,285,8.7,8.7,18,0.00,,---,0.00,VWS V14.01,2013-08-19 22:24:00,
2013-08-19 15:29:00,90.7,41.4,30.00,WSW,241,12.8,12.8,18,0.00,,---,0.00,VWS V14.01,2013-08-19 22:29:00,
2013-08-19 15:34:00,89.8,40.7,30.00,WSW,241,12.8,12.8,18,0.00,,---,0.00,VWS V14.01,2013-08-19 22:34:00,
2013-08-19 15:40:00,90.3,41.1,30.00,SW,224,10.5,10.5,18,0.00,,---,0.00,VWS V14.01,2013-08-19 22:40:00,
2013-08-19 15:46:00,90.5,41.3,30.00,SW,224,10.5,10.5,18,0.00,,---,0.00,VWS V14.01,2013-08-19 22:46:00,
2013-08-19 15:51:00,89.6,40.5,30.00,SW,224,10.5,10.5,18,0.00,,---,0.00,VWS V14.01,2013-08-19 22:51:00,
2013-08-19 15:57:00,88.3,41.6,30.00,WSW,243,8.7,8.7,20,0.00,,---,0.00,VWS V14.01,2013-08-19 22:57:00,
2013-08-19 16:03:00,87.6,41.0,30.00,West,261,8.7,8.7,20,0.00,,---,0.00,VWS V14.01,2013-08-19 23:03:00,
2013-08-19 16:09:00,88.3,41.6,30.00,WSW,247,8.3,8.3,20,0.00,,---,0.00,VWS V14.01,2013-08-19 23:09:00,
2013-08-19 16:14:00,88.3,41.6,30.00,WSW,247,8.3,8.3,20,0.00,,---,0.00,VWS V14.01,2013-08-19 23:14:00,
2013-08-19 16:19:00,87.4,40.8,30.00,WSW,258,9.6,9.6,20,0.00,,---,0.00,VWS V14.01,2013-08-19 23:19:00,
2013-08-19 16:24:00,86.4,40.0,30.00,West,277,8.3,8.3,20,0.00,,---,0.00,VWS V14.01,2013-08-19 23:24:00,
2013-08-19 16:30:00,86.9,40.4,30.00,West,277,8.3,8.3,20,0.00,,---,0.00,VWS V14.01,2013-08-19 23:30:00,
2013-08-19 16:35:00,87.1,40.5,30.00,West,262,10.1,10.1,20,0.00,,---,0.00,VWS V14.01,2013-08-19 23:35:00,
2013-08-19 16:42:00,86.5,40.1,30.00,West,262,10.1,10.1,20,0.00,,---,0.00,VWS V14.01,2013-08-19 23:42:00,
2013-08-19 16:47:00,86.0,39.7,30.00,West,262,10.1,10.1,20,0.00,,---,0.00,VWS V14.01,2013-08-19 23:47:00,
2013-08-19 16:52:00,86.5,40.1,30.00,West,267,8.7,8.7,20,0.00,,---,0.00,VWS V14.01,2013-08-19 23:52:00,
2013-08-19 16:57:00,86.9,40.4,30.00,West,273,8.3,8.3,20,0.00,,---,0.00,VWS V14.01,2013-08-19 23:57:00,
2013-08-19 17:02:00,86.5,40.1,30.00,West,273,8.3,8.3,20,0.00,,---,0.00,VWS V14.01,2013-08-20 00:02:00,
2013-08-19 17:08:00,86.0,39.7,30.00,West,267,7.2,7.2,20,0.00,,---,0.00,VWS V14.01,2013-08-20 00:08:00,
2013-08-19 17:13:00,86.9,40.4,30.00,West,267,7.2,7.2,20,0.00,,---,0.00,VWS V14.01,2013-08-20 00:13:00,
2013-08-19 17:18:00,88.0,41.3,30.00,WNW,303,5.8,5.8,20,0.00,,---,0.00,VWS V14.01,2013-08-20 00:18:00,
2013-08-19 17:23:00,88.0,41.3,30.00,WNW,303,5.8,5.8,20,0.00,,---,0.00,VWS V14.01,2013-08-20 00:23:00,
2013-08-19 17:28:00,87.1,40.5,30.00,WSW,253,8.3,8.3,20,0.00,,---,0.00,VWS V14.01,2013-08-20 00:28:00,
2013-08-19 17:33:00,87.4,40.8,30.00,WSW,253,8.3,8.3,20,0.00,,---,0.00,VWS V14.01,2013-08-20 00:33:00,
2013-08-19 17:39:00,88.0,41.3,29.97,WSW,258,10.1,10.1,20,0.00,,---,0.00,VWS V14.01,2013-08-20 00:39:00,
2013-08-19 17:44:00,88.3,41.6,29.97,WSW,258,10.1,10.1,20,0.00,,---,0.00,VWS V14.01,2013-08-20 00:44:00,
2013-08-19 17:49:00,89.1,42.2,29.97,WSW,258,10.1,10.1,20,0.00,,---,0.00,VWS V14.01,2013-08-20 00:49:00,
2013-08-19 17:54:00,88.2,41.4,29.97,NW,310,5.8,5.8,20,0.00,,---,0.00,VWS V14.01,2013-08-20 00:54:00,
2013-08-19 18:00:00,88.0,41.3,29.97,WSW,253,9.2,9.2,20,0.00,,---,0.00,VWS V14.01,2013-08-20 01:00:00,
2013-08-19 18:05:00,88.3,41.6,29.97,West,278,5.4,5.4,20,0.00,,---,0.00,VWS V14.01,2013-08-20 01:05:00,
2013-08-19 18:10:00,88.3,41.6,29.97,West,278,5.4,5.4,20,0.00,,---,0.00,VWS V14.01,2013-08-20 01:10:00,
2013-08-19 18:16:00,88.3,41.6,29.97,WSW,248,11.4,11.4,20,0.00,,---,0.00,VWS V14.01,2013-08-20 01:16:00,
2013-08-19 18:22:00,87.4,40.8,29.97,SW,226,8.3,8.3,20,0.00,,---,0.00,VWS V14.01,2013-08-20 01:22:00,
2013-08-19 18:27:00,86.9,40.4,29.97,WSW,243,8.3,11.0,20,0.00,,---,0.00,VWS V14.01,2013-08-20 01:27:00,
2013-08-19 18:32:00,86.9,40.4,29.97,WSW,243,8.3,8.3,20,0.00,,---,0.00,VWS V14.01,2013-08-20 01:32:00,
2013-08-19 18:38:00,87.1,40.5,29.97,WSW,237,8.3,8.3,20,0.00,,---,0.00,VWS V14.01,2013-08-20 01:38:00,
2013-08-19 18:43:00,86.4,40.0,29.97,WSW,237,8.3,8.3,20,0.00,,---,0.00,VWS V14.01,2013-08-20 01:43:00,
2013-08-19 18:48:00,85.1,38.9,29.97,WSW,239,6.3,6.3,20,0.00,,---,0.00,VWS V14.01,2013-08-20 01:48:00,
2013-08-19 18:53:00,84.2,38.2,29.97,WSW,239,6.3,6.3,20,0.00,,---,0.00,VWS V14.01,2013-08-20 01:53:00,
2013-08-19 18:59:00,84.0,39.9,29.97,WSW,239,6.3,6.3,21,0.00,,---,0.00,VWS V14.01,2013-08-20 01:59:00,
2013-08-19 19:05:00,83.8,39.8,29.97,WSW,239,6.3,6.3,21,0.00,,---,0.00,VWS V14.01,2013-08-20 02:05:00,
2013-08-19 19:10:00,82.8,38.9,29.97,SW,234,5.8,5.8,21,0.00,,---,0.00,VWS V14.01,2013-08-20 02:10:00,
2013-08-19 19:15:00,82.0,38.3,29.97,WSW,250,6.3,6.3,21,0.00,,---,0.00,VWS V14.01,2013-08-20 02:15:00,
2013-08-19 19:20:00,81.1,37.5,29.97,WSW,250,6.3,6.3,21,0.00,,---,0.00,VWS V14.01,2013-08-20 02:20:00,
2013-08-19 19:25:00,80.4,38.7,29.97,WSW,250,6.3,6.3,22,0.00,,---,0.00,VWS V14.01,2013-08-20 02:25:00,
2013-08-19 19:31:00,79.9,38.2,29.97,WSW,247,3.1,3.1,22,0.00,,---,0.00,VWS V14.01,2013-08-20 02:31:00,
2013-08-19 19:36:00,79.7,38.1,30.00,WSW,247,3.1,3.1,22,0.00,,---,0.00,VWS V14.01,2013-08-20 02:36:00,
2013-08-19 19:41:00,78.6,37.2,30.00,WNW,293,4.0,4.0,22,0.00,,---,0.00,VWS V14.01,2013-08-20 02:41:00,
2013-08-19 19:46:00,77.7,36.5,30.00,WNW,293,4.0,4.0,22,0.00,,---,0.00,VWS V14.01,2013-08-20 02:46:00,
2013-08-19 19:51:00,77.2,36.0,30.00,WNW,293,4.0,4.0,22,0.00,,---,0.00,VWS V14.01,2013-08-20 02:51:00,
2013-08-19 19:56:00,76.8,35.7,30.00,WNW,298,3.6,3.6,22,0.00,,---,0.00,VWS V14.01,2013-08-20 02:56:00,
2013-08-19 20:03:00,75.7,34.8,30.00,WNW,293,4.0,4.0,22,0.00,,---,0.00,VWS V14.01,2013-08-20 03:03:00,
2013-08-19 20:09:00,75.9,34.9,30.00,NW,304,4.0,4.0,22,0.00,,---,0.00,VWS V14.01,2013-08-20 03:09:00,
2013-08-19 20:14:00,75.9,34.9,30.00,NW,304,4.0,4.0,22,0.00,,---,0.00,VWS V14.01,2013-08-20 03:14:00,
2013-08-19 20:19:00,75.9,34.9,30.00,NW,324,0.0,4.0,22,0.00,,---,0.00,VWS V14.01,2013-08-20 03:19:00,
2013-08-19 20:24:00,75.7,34.8,30.00,WNW,293,0.0,0.0,22,0.00,,---,0.00,VWS V14.01,2013-08-20 03:24:00,
2013-08-19 20:30:00,75.6,34.6,30.00,NNW,341,0.0,0.0,22,0.00,,---,0.00,VWS V14.01,2013-08-20 03:30:00,
2013-08-19 20:35:00,75.2,34.3,30.00,NW,310,3.6,3.6,22,0.00,,---,0.00,VWS V14.01,2013-08-20 03:35:00,
2013-08-19 20:40:00,74.7,35.5,30.00,WNW,291,3.1,3.1,24,0.00,,---,0.00,VWS V14.01,2013-08-20 03:40:00,
2013-08-19 20:45:00,74.5,35.4,30.00,NNW,329,4.9,4.9,24,0.00,,---,0.00,VWS V14.01,2013-08-20 03:45:00,
2013-08-19 20:50:00,74.8,35.7,30.00,NNW,329,4.9,4.9,24,0.00,,---,0.00,VWS V14.01,2013-08-20 03:50:00,
2013-08-19 20:56:00,74.7,35.5,30.00,NNW,332,4.0,4.0,24,0.00,,---,0.00,VWS V14.01,2013-08-20 03:56:00,
2013-08-19 21:01:00,74.7,35.5,30.00,NW,304,3.6,4.0,24,0.00,,---,0.00,VWS V14.01,2013-08-20 04:01:00,
2013-08-19 21:02:00,74.7,35.5,30.00,NW,304,3.6,3.6,24,0.00,,---,0.00,VWS V14.01,2013-08-20 04:02:00,
2013-08-19 21:06:00,74.7,35.5,30.00,WNW,292,5.4,5.4,24,0.00,,---,0.00,VWS V14.01,2013-08-20 04:06:00,
2013-08-19 21:08:00,74.8,35.7,30.00,West,263,4.0,4.0,24,0.00,,---,0.00,VWS V14.01,2013-08-20 04:08:00,
2013-08-19 21:13:00,74.8,35.7,30.00,WNW,282,4.9,4.9,24,0.00,,---,0.00,VWS V14.01,2013-08-20 04:13:00,
2013-08-19 21:18:00,74.8,35.7,30.00,WNW,282,4.9,4.9,24,0.00,,---,0.00,VWS V14.01,2013-08-20 04:18:00,
2013-08-19 21:23:00,74.3,35.2,30.00,WNW,282,4.9,4.9,24,0.00,,---,0.00,VWS V14.01,2013-08-20 04:23:00,
2013-08-19 21:28:00,73.2,34.3,30.00,WNW,282,4.9,4.9,24,0.00,,---,0.00,VWS V14.01,2013-08-20 04:28:00,
2013-08-19 21:34:00,72.7,33.8,30.00,NNE,16,0.0,0.0,24,0.00,,---,0.00,VWS V14.01,2013-08-20 04:34:00,
2013-08-19 21:40:00,71.6,29.6,30.03,NE,42,4.0,4.0,21,0.00,,---,0.00,VWS V14.01,2013-08-20 04:40:00,
2013-08-19 21:45:00,71.1,29.2,30.03,NE,46,2.2,3.1,21,0.00,,---,0.00,VWS V14.01,2013-08-20 04:45:00,
2013-08-19 21:51:00,70.3,28.6,30.03,NNE,30,2.7,3.6,21,0.00,,---,0.00,VWS V14.01,2013-08-20 04:51:00,
2013-08-19 21:57:00,69.8,28.1,30.03,West,277,2.7,3.6,21,0.00,,---,0.00,VWS V14.01,2013-08-20 04:57:00,
2013-08-19 22:02:00,69.3,32.5,30.03,NNE,21,0.0,2.7,26,0.00,,---,0.00,VWS V14.01,2013-08-20 05:02:00,
2013-08-19 22:07:00,68.4,31.7,30.03,North,353,2.2,3.1,26,0.00,,---,0.00,VWS V14.01,2013-08-20 05:07:00,
2013-08-19 22:13:00,68.2,31.5,30.03,North,0,0.0,2.7,26,0.00,,---,0.00,VWS V14.01,2013-08-20 05:13:00,
2013-08-19 22:18:00,68.2,31.5,30.03,North,0,0.0,0.0,26,0.00,,---,0.00,VWS V14.01,2013-08-20 05:18:00,
2013-08-19 22:23:00,68.0,31.4,30.03,North,0,0.0,0.0,26,0.00,,---,0.00,VWS V14.01,2013-08-20 05:23:00,
2013-08-19 22:28:00,67.8,31.2,30.03,North,0,0.0,0.0,26,0.00,,---,0.00,VWS V14.01,2013-08-20 05:28:00,
2013-08-19 22:33:00,67.3,30.8,30.03,North,0,0.0,0.0,26,0.00,,---,0.00,VWS V14.01,2013-08-20 05:33:00,
2013-08-19 22:39:00,66.7,30.3,30.03,North,0,0.0,0.0,26,0.00,,---,0.00,VWS V14.01,2013-08-20 05:39:00,
2013-08-19 22:44:00,66.7,30.3,30.03,SE,128,0.0,0.0,26,0.00,,---,0.00,VWS V14.01,2013-08-20 05:44:00,
2013-08-19 22:49:00,66.6,30.2,30.03,ENE,74,0.0,0.0,26,0.00,,---,0.00,VWS V14.01,2013-08-20 05:49:00,
2013-08-19 22:54:00,66.0,31.1,30.03,NNE,21,0.0,2.2,27,0.00,,---,0.00,VWS V14.01,2013-08-20 05:54:00,
2013-08-19 23:00:00,65.5,30.6,30.03,NNE,21,2.2,2.7,27,0.00,,---,0.00,VWS V14.01,2013-08-20 06:00:00,
2013-08-19 23:06:00,65.5,30.6,30.03,NNE,21,0.0,0.0,27,0.00,,---,0.00,VWS V14.01,2013-08-20 06:06:00,
2013-08-19 23:12:00,65.3,30.5,30.03,NNE,21,0.0,0.0,27,0.00,,---,0.00,VWS V14.01,2013-08-20 06:12:00,
2013-08-19 23:18:00,65.1,30.3,30.03,East,79,0.0,0.0,27,0.00,,---,0.00,VWS V14.01,2013-08-20 06:18:00,
2013-08-19 23:24:00,64.6,29.9,30.03,East,80,0.0,0.0,27,0.00,,---,0.00,VWS V14.01,2013-08-20 06:24:00,
2013-08-19 23:30:00,64.0,29.4,30.03,East,79,0.0,0.0,27,0.00,,---,0.00,VWS V14.01,2013-08-20 06:30:00,
2013-08-19 23:36:00,64.0,33.2,30.03,East,80,0.0,0.0,32,0.00,,---,0.00,VWS V14.01,2013-08-20 06:36:00,
2013-08-19 23:41:00,64.0,33.2,30.03,East,80,0.0,0.0,32,0.00,,---,0.00,VWS V14.01,2013-08-20 06:41:00,
2013-08-19 23:47:00,64.0,33.2,30.03,East,79,0.0,0.0,32,0.00,,---,0.00,VWS V14.01,2013-08-20 06:47:00,
2013-08-19 23:52:00,64.2,33.4,30.03,East,79,0.0,0.0,32,0.00,,---,0.00,VWS V14.01,2013-08-20 06:52:00,
2013-08-19 23:57:00,64.0,33.2,30.03,NE,55,0.0,0.0,32,0.00,,---,0.00,VWS V14.01,2013-08-20 06:57:00,